Date String (YYYY-MM-DD hh:mm:ss) UTC,Instrument flags,Ambient pressure (hPa),Sample flow (lpm),Bypass flow (lpm),Sample temperature (°C),Ambient temperature (°C),ASC tube jacket temperature (°C),LED temperature (°C),Box temperature (°C),Sample RH (%),Span deviation,Mass concentration (μg/m³),Mass concentration (μg/m³),Mass concentration (μg/m³)
DateTimeUTC,F1_M11,P_M11,Q1_M11,Q2_M11,T1_M11,T2_M11,T3_M11,T4_M11,T5_M11,U1_M11,ZSPAN_M11,X0_M11,X2_M11,X1_M11
2022-05-07 00:00:00,,0819.8,5.00,0.00,29.2,25.5,00.0,38.2,30.7,12.3,0000.0,0013.18,0004.25,0002.34
2022-05-07 00:01:00,,0819.8,4.99,0.00,29.1,26.0,00.0,38.1,30.7,12.7,0000.0,0012.83,0004.28,0002.34
2022-05-07 00:02:00,,0819.8,5.02,0.00,29.1,26.5,00.0,38.1,30.8,12.1,0000.0,0012.88,0004.37,0002.38
2022-05-07 00:03:00,,0819.7,5.00,0.00,29.1,26.9,00.0,38.1,30.9,12.0,0000.0,0013.03,0004.38,0002.39
2022-05-07 00:04:00,,0819.7,5.00,0.00,29.2,27.4,00.0,38.1,31.0,12.1,0000.0,0013.19,0004.35,0002.40
2022-05-07 00:05:00,,0819.8,5.00,0.00,29.2,27.7,00.0,38.1,31.1,11.6,0000.0,0013.13,0004.31,0002.40
2022-05-07 00:06:00,,0819.8,5.00,0.00,29.3,27.9,00.0,38.1,31.2,10.9,0000.0,0012.97,0004.33,0002.40
2022-05-07 00:07:00,,0819.8,5.00,0.00,29.3,28.2,00.0,38.1,31.3,11.2,0000.0,0013.11,0004.32,0002.42
2022-05-07 00:08:00,,0819.8,5.00,0.00,29.4,28.3,00.0,38.1,31.3,11.1,0000.0,0013.15,0004.28,0002.42
2022-05-07 00:09:00,,0819.8,5.00,0.00,29.4,28.5,00.0,38.2,31.4,11.8,0000.0,0012.98,0004.28,0002.42
2022-05-07 00:10:00,,0819.8,5.01,0.00,29.5,28.7,00.0,38.2,31.5,12.0,0000.0,0012.26,0004.20,0002.41
2022-05-07 00:11:00,,0819.8,5.00,0.00,29.5,28.0,00.0,38.2,31.3,12.1,0000.0,0012.85,0004.18,0002.41
2022-05-07 00:12:00,,0819.8,5.01,0.00,29.4,25.8,00.0,38.2,30.8,12.0,0000.0,0013.35,0004.17,0002.42
2022-05-07 00:13:00,,0819.8,5.00,0.00,29.2,25.2,00.0,38.2,30.6,11.9,0000.0,0013.74,0004.14,0002.40
2022-05-07 00:14:00,,0819.8,5.00,0.00,29.2,25.6,00.0,38.2,30.7,11.2,0000.0,0013.46,0004.15,0002.37
2022-05-07 00:15:00,,0819.8,5.01,0.00,29.1,26.1,00.0,38.1,30.8,11.3,0000.0,0013.33,0004.18,0002.38
2022-05-07 00:16:00,,0819.8,4.99,0.00,29.2,26.6,00.0,38.1,30.9,11.7,0000.0,0014.06,0004.18,0002.40
2022-05-07 00:17:00,,0819.7,5.01,0.00,29.2,27.0,00.0,38.1,31.0,11.5,0000.0,0013.94,0004.20,0002.40
2022-05-07 00:18:00,,0819.7,4.99,0.00,29.2,27.4,00.0,38.1,31.1,11.3,0000.0,0013.25,0004.19,0002.39
2022-05-07 00:19:00,,0819.7,4.99,0.00,29.3,27.7,00.0,38.1,31.2,11.1,0000.0,0013.10,0004.24,0002.40
2022-05-07 00:20:00,,0819.8,5.00,0.00,29.3,27.9,00.0,38.1,31.2,10.7,0000.0,0013.06,0004.25,0002.39
2022-05-07 00:21:00,,0819.8,5.00,0.00,29.3,28.1,00.0,38.1,31.3,10.7,0000.0,0013.23,0004.24,0002.41
2022-05-07 00:22:00,,0819.8,4.99,0.00,29.4,28.2,00.0,38.1,31.3,11.0,0000.0,0012.33,0004.17,0002.41
2022-05-07 00:23:00,,0819.8,5.01,0.00,29.4,28.4,00.0,38.2,31.4,10.9,0000.0,0011.65,0004.12,0002.38
2022-05-07 00:24:00,,0819.8,4.99,0.00,29.5,28.5,00.0,38.2,31.5,10.6,0000.0,0010.99,0004.03,0002.35
2022-05-07 00:25:00,,0819.7,5.00,0.00,29.5,28.4,00.0,38.2,31.4,10.4,0000.0,0010.74,0004.00,0002.37
2022-05-07 00:26:00,,0819.8,5.01,0.00,29.5,26.5,00.0,38.2,31.0,10.7,0000.0,0010.72,0003.96,0002.36
2022-05-07 00:27:00,,0819.8,5.01,0.00,29.3,24.9,00.0,38.2,30.6,11.3,0000.0,0009.91,0003.95,0002.33
2022-05-07 00:28:00,,0819.7,5.00,0.00,29.2,25.2,00.0,38.2,30.6,11.6,0000.0,0009.80,0003.91,0002.32
2022-05-07 00:29:00,,0819.8,4.99,0.00,29.1,25.7,00.0,38.1,30.7,11.7,0000.0,0009.74,0003.86,0002.31
2022-05-07 00:30:00,,0819.8,5.01,0.00,29.1,26.2,00.0,38.1,30.8,11.9,0000.0,0009.43,0003.86,0002.32
2022-05-07 00:31:00,,0819.8,5.00,0.00,29.2,26.7,00.0,38.1,31.0,11.9,0000.0,0009.62,0003.83,0002.32
2022-05-07 00:32:00,,0819.9,4.99,0.00,29.2,27.1,00.0,38.1,31.0,12.1,0000.0,0009.91,0003.82,0002.31
2022-05-07 00:33:00,,0819.9,5.00,0.00,29.2,27.4,00.0,38.1,31.1,12.4,0000.0,0010.50,0003.85,0002.29
2022-05-07 00:34:00,,0820.0,5.01,0.00,29.3,27.7,00.0,38.1,31.2,12.7,0000.0,0010.40,0003.85,0002.32
2022-05-07 00:35:00,,0819.9,5.00,0.00,29.3,27.9,00.0,38.1,31.2,12.6,0000.0,0010.70,0003.96,0002.35
2022-05-07 00:36:00,,0819.9,4.99,0.00,29.4,28.0,00.0,38.1,31.3,12.7,0000.0,0010.87,0004.04,0002.38
2022-05-07 00:37:00,,0819.9,5.00,0.00,29.4,28.2,00.0,38.2,31.3,13.3,0000.0,0011.24,0004.09,0002.39
2022-05-07 00:38:00,,0819.9,5.00,0.00,29.5,28.4,00.0,38.2,31.4,13.4,0000.0,0011.48,0004.09,0002.40
2022-05-07 00:39:00,,0819.8,5.00,0.00,29.5,28.5,00.0,38.2,31.5,13.5,0000.0,0012.04,0004.09,0002.42
2022-05-07 00:40:00,,0819.9,4.99,0.00,29.6,28.4,00.0,38.3,31.4,13.4,0000.0,0012.71,0004.15,0002.44
2022-05-07 00:41:00,,0819.9,5.02,0.00,29.5,26.5,00.0,38.2,31.0,13.9,0000.0,0012.74,0004.21,0002.45
2022-05-07 00:42:00,,0819.9,4.99,0.00,29.3,25.0,00.0,38.2,30.6,14.4,0000.0,0012.58,0004.26,0002.47
2022-05-07 00:43:00,,0820.0,5.01,0.00,29.2,25.3,00.0,38.2,30.7,14.2,0000.0,0012.11,0004.25,0002.47
2022-05-07 00:44:00,,0820.0,4.99,0.00,29.2,25.8,00.0,38.1,30.7,14.2,0000.0,0011.31,0004.21,0002.50
2022-05-07 00:45:00,,0820.1,5.01,0.00,29.1,26.3,00.0,38.1,30.8,13.9,0000.0,0011.23,0004.21,0002.49
2022-05-07 00:46:00,,0820.2,5.00,0.00,29.2,26.8,00.0,38.1,30.9,14.1,0000.0,0011.11,0004.17,0002.48
2022-05-07 00:47:00,,0820.2,5.01,0.00,29.2,27.2,00.0,38.1,31.0,14.1,0000.0,0011.23,0004.09,0002.46
2022-05-07 00:48:00,,0820.3,5.00,0.00,29.2,27.6,00.0,38.1,31.1,13.8,0000.0,0011.69,0004.07,0002.45
2022-05-07 00:49:00,,0820.3,4.99,0.00,29.3,27.9,00.0,38.1,31.2,13.6,0000.0,0011.61,0004.13,0002.47
2022-05-07 00:50:00,,0820.2,5.02,0.00,29.3,28.1,00.0,38.1,31.3,13.4,0000.0,0011.24,0004.16,0002.48
2022-05-07 00:51:00,,0820.2,4.99,0.00,29.4,28.3,00.0,38.1,31.3,12.9,0000.0,0010.57,0004.14,0002.46
2022-05-07 00:52:00,,0820.2,5.01,0.00,29.4,28.5,00.0,38.2,31.4,12.8,0000.0,0010.38,0004.07,0002.46
2022-05-07 00:53:00,,0820.3,5.00,0.00,29.5,28.7,00.0,38.2,31.5,12.8,0000.0,0010.32,0004.03,0002.44
2022-05-07 00:54:00,,0820.3,5.00,0.00,29.5,28.8,00.0,38.2,31.5,12.9,0000.0,0010.97,0004.08,0002.45
2022-05-07 00:55:00,,0820.3,5.01,0.00,29.6,27.5,00.0,38.2,31.2,12.8,0000.0,0011.43,0004.11,0002.43
2022-05-07 00:56:00,,0820.3,4.99,0.00,29.4,25.4,00.0,38.2,30.8,12.8,0000.0,0011.47,0004.09,0002.41
2022-05-07 00:57:00,,0820.3,4.99,0.00,29.3,25.1,00.0,38.2,30.7,12.8,0000.0,0011.63,0004.11,0002.41
2022-05-07 00:58:00,,0820.3,5.00,0.00,29.2,25.6,00.0,38.2,30.7,12.8,0000.0,0012.35,0004.12,0002.41
2022-05-07 00:59:00,,0820.3,5.01,0.00,29.2,26.1,00.0,38.1,30.8,12.9,0000.0,0011.84,0004.14,0002.41
